NOAA 16 DEB

Satellite information

Favourite Embed

Satellite Type and Status

DEBRISIN ORBIT

Key statistics

Satellite NOAA 16 DEB at a glance.

Uptime

8997

Days in orbit

Revolutions

≈ 14.1

Per day

Orbit

SSO

Sun Synchronous Orbit

Inclination

98.7

Latest

Satellite identification and parameters

Extended collection of information and parameters for NOAA 16 DEB.

Object identification

Identified? True

Debris? True

Object name: NOAA 16 DEB

International designator: 2000-055QX

Object number (NORAD): 42355

Object ID (CCSDS): 42355

Country: UNITED STATES OF AMERICA (US)

Current information (Y/N): Y

RCS size: SMALL

Orbital parameters

Period: 101.874 minutes

Inclination: 98.713 deg

SMA: 7225.514 km

Apoapsis: 871.771 km

Periapsis: 822.986 km

RAAN: 159.8495 deg

Eccentricy: 0.0033759

Argument of periapsis: 315.3386 deg

Mean anomaly: 44.5069 deg

Mean motion: 14.13512559 rev/day

Mean motion (dot): 0.00002911 rev/day2

B* drag term: 0.0015603 1/REarth

Two-line elements (TLE)

Creation date: May 9, 2025, 5:15 p.m.

Reference frame: TEME

Reference center: EARTH

Epoch: May 9, 2025, 1:07 a.m. UTC

TLE line 0: 0 NOAA 16 DEB

TLE line 1: 1 42355U 00055QX 25129.04710470 .00002911 00000-0 15603-2 0 9991

TLE line 2: 2 42355 98.7130 159.8495 0033759 315.3386 44.5069 14.13512559473464

Live tracking on map

Real-time ground track for satellite NOAA 16 DEB.

In-orbit conjunctions

A list of the most updated potential collisions computed for object NOAA 16 DEB.

Target Orbit TCA Probability of collision Miss distance Type
INTERCOSMOS 22 LEO 2025-03-15 02:09:00 0.0003166204 375.0 (m) PAYLOAD
FENGYUN 1C DEB SSO 2025-01-31 19:20:01 0.0001450152 128.0 (m) DEBRIS
FENGYUN 1C DEB SSO 2024-11-16 12:59:09 0.001031287 167.0 (m) DEBRIS

Associated space launch

The NOAA K, L and M POES satellites begin the fifth generation of improved environmental monitoring in support of NOAA missions. The instrument payload has significant improvements and additions/deletions. The instrument changes have effected the spacecraft subsystems and data formats.

NOAA 16 DEB was lifted into orbit during the mission ‘Titan II SLV | NOAA 16’, on board a Titan II SLV space rocket.

The launch took place on Sept. 21, 2000, 10:22 a.m. from Space Launch Complex 4W.

For more information about the launch, click the button.

Launch to space Titan II SLV | NOAA 16
Titan II SLV | NOAA 16

Agency: N/A

Status: Launch Successful

Launch date: Sept. 21, 2000, 10:22 a.m. UTC

Rocket: Titan II SLV

Launch pad: Space Launch Complex 4W

Location: Vandenberg SFB, CA, USA

...

Latest news about this satellite

There are no fresh news available about this satellite. Check back as we update our databases every day.


Newsletter sign-up

Weekly statistics, charts and insights to help you stay on top of the space industry.